User: anonymous   Login
Location: PFO Observatory
(45.2937°N, 66.0991°W)
Time: 17:50:42
(UTC-03:00)
Language:

Cosmos 1151 Rocket - Orbit

View from above orbital plane
View from above orbital plane
View from above satellite
View from above satellite

Ground track
Ground track

The orbit data is extracted from the following two-line orbital elements,

1 11672U 80005B   17176.25011029 +.00000097 +00000-0 +79395-5 0  9996
2 11672 082.5163 071.7724 0015300 292.7388 067.2212 14.87869237003480
Epoch (UTC): 25 June 2017 06:00:09
Eccentricity: 0.0015300
inclination: 82.5163°
perigee height: 594 km
apogee height: 615 km
right ascension of ascending node: 71.7724°
argument of perigee: 292.7388°
revolutions per day: 14.87869237
mean anomaly at epoch: 67.2212°
orbit number at epoch: 348

The dashed part of the orbit path shows where the satellite is in the earth's shadow,  

DLR